Regional Weather Roundup
Issued by NWS

Home | Current Version | Previous Version | Graphics & Text | Print | Product List | Glossary On
Versions: 1 2 3 4 5 6 7 8 9 10 11 12 13 14 15 16 17 18 19 20 21 22 23 24 25 26 27 28 29 30 31 32 33 34 35 36 37 38 39 40 41 42 43 44 45 46 47 48 49 50
000
ASUS43 KDMX 011907
RWRIA

WEATHER ROUNDUP FOR IOWA
NATIONAL WEATHER SERVICE DES MOINES IA
200 PM CDT WED APR 01 2015

NOTE: "FAIR" INDICATES FEW OR NO CLOUDS BELOW 12,000 FEET WITH NO
SIGNIFICANT WEATHER AND/OR OBSTRUCTIONS TO VISIBILITY.

* - THESE STATIONS ARE NOT NWS STATIONS...THUS NOT UNDER NWS
QUALITY CONTROL.  THEY ALSO DO NOT REPORT WEATHER SUCH
AS PRECIPITATION OR FOG.

IAZ001>003-012>014-020>022-031>034-043>046-012000-
   NORTHWEST IOWA

CITY           SKY/WX    TMP DP  RH WIND       PRES   REMARKS
CARROLL *      SUNNY     82  39  21 S29G38    29.68F HX  80
CHEROKEE *     SUNNY     81  43  26 S29G37    29.60F
DENISON *      SUNNY     81  43  26 S29G43    29.64F
LE MARS *      SUNNY     81  45  28 S31G41    29.57F
ORANGE CITY *  SUNNY     81  37  21 S33G41    29.58F
SHELDON *      SUNNY     81  45  28 S35G47    29.56F
SIOUX CITY     MOSUNNY   84  44  24 S32G40    29.60F HX  82
SPENCER        SUNNY     82  43  25 S35G41    29.59F HX  80
STORM LAKE *   SUNNY     81  43  26 S36       29.63F
$$

IAZ055>058-069>071-079>083-090>094-012000-
   SOUTHWEST IOWA

CITY           SKY/WX    TMP DP  RH WIND       PRES   REMARKS
ATLANTIC *     SUNNY     81  45  28 S25G36    29.70F
AUDUBON *      SUNNY     81  37  21 S24       29.71F
CLARINDA *     SUNNY     79  52  38 S21       29.74F
COUNCIL BLFS * SUNNY     81  50  34 S24G33    29.68F HX  80
CRESTON *      SUNNY     77  39  25 S26G33    29.76F
HARLAN  *      SUNNY     81  46  30 S25G39    29.71F HX  80
LAMONI         SUNNY     78  44  29 S18G28    29.79F
RED OAK *      SUNNY     81  50  34 S26G35    29.71F HX  80
SHENANDOAH *   SUNNY     82  52  34 S25G37    29.70F HX  81
$$

IAZ047>049-059>061-072>074-084-012000-
   CENTRAL IOWA

CITY           SKY/WX    TMP DP  RH WIND       PRES   REMARKS
AMES           SUNNY     79  36  21 S25G38    29.74F
ANKENY *       SUNNY     79  37  22 S24G32    29.75F
CHARITON *     SUNNY     77  41  27 S24G33    29.79F
DES MOINES     PTSUNNY   80  35  19 S26G38    29.77F
GRINNELL*      SUNNY     77  32  19 S25G35    29.80F
KNOXVILLE *    SUNNY     77  37  24 S20G32    29.77F
MARSHALLTOWN   SUNNY     79  36  21 S25G38    29.75F
PELLA *        SUNNY     79  43  27 S20G30    29.81F
PERRY *          N/A     81  37  21 S30       29.72F
$$

IAZ004>006-015-016-023>025-035-036-012000-
   NORTH CENTRAL IOWA

CITY           SKY/WX    TMP DP  RH WIND       PRES   REMARKS
ALGONA *       SUNNY     81  36  19 S39G46    29.65F
CLARION *      SUNNY     81  36  19 S35G47    29.68F
ESTHERVILLE    SUNNY     79  39  23 S36G48    29.59F
FORT DODGE *   SUNNY     81  37  21 S29G40    29.69F
MASON CITY     SUNNY     78  37  22 S24G44    29.69F
FOREST CITY *  SUNNY     77  36  22 S31G40    29.67F
IOWA FALLS *     N/A     79  36  21 S32G39    29.74F
$$

IAZ007>011-017>019-026>030-037>042-050>054-066-012000-
   NORTHEAST IOWA

CITY           SKY/WX    TMP DP  RH WIND       PRES   REMARKS
CEDAR RAPIDS   SUNNY     79  33  19 S23G35    29.82F
CHARLES CITY * SUNNY     77  36  22 S29       29.72F
CLINTON *      SUNNY     79  36  21 S25       29.90F
DECORAH *      SUNNY     75  36  23 S18G33    29.74F
DUBUQUE        SUNNY     76  34  21 S25G32    29.84F
MONTICELLO *   SUNNY     77  34  20 S24G33    29.83F
OELWEIN *      SUNNY     77  36  22 S33G41    29.78F
WATERLOO       SUNNY     79  33  19 S26G38    29.76F
$$

IAZ064-065-067-068-078-012000-
   EAST CENTRAL IOWA

CITY           SKY/WX    TMP DP  RH WIND       PRES   REMARKS
DAVENPORT      SUNNY     78  33  19 S23G32    29.88F
IOWA CITY      SUNNY     78  34  20 S21G31    29.86F
MT. PLEASANT * SUNNY     77  34  20 S21G26    29.87F
MUSCATINE *    SUNNY     79  32  18 S21G30    29.86F
QUAD CITIES    SUNNY     79  32  18 S20G25    29.87F
$$

IAZ062-063-075>077-085>089-095>099-012000-
   SOUTHEAST IOWA

CITY           SKY/WX    TMP DP  RH WIND       PRES   REMARKS
BURLINGTON     SUNNY     77  34  21 S21G30    29.88F
FAIRFIELD *    SUNNY     77  34  20 S21G28    29.84F
FORT MADISON * SUNNY     75  37  25 S18G24    29.89F
KEOKUK *       SUNNY     77  36  22 S15G28    29.88F
OSKALOOSA *      N/A     77  36  22 S23G37    29.82F
CENTERVILLE *  SUNNY     77  41  27 SE22G30   29.84F
OTTUMWA        SUNNY     78  36  21 S26G36    29.82F
WASHINGTON *   SUNNY     79  34  19 S22G31    29.84F
$$

ABBREVIATIONS USED IN REMARKS
   TC - TEMPERATURES IN CELSIUS
  WCI - WIND CHILL INDEX
   HX - HEAT INDEX
  VSB - VISIBILITY
$$



USA.gov is the U.S. government's official web portal to all federal, state and local government web resources and services.